Location: Arroyo de San Miguel
(40.9167°N, 4.6667°W)
Time: 15:07:55
(UTC+00:00)

Cosmos 1356 Rocket - Pass Details

Date: 19 May 2025
Orbit: 517 x 566 km, 81.2° (Epoch: 18 June)

Event Time Altitude Azimuth Distance (km) Brightness Sun altitude
Exits shadow 22:03:59 44° 221° (SW) 791 3.9 -21.9°
Maximum altitude 22:05:04 63° 281° (W) 635 3.7 -22.0°
Drops below altitude 10° 22:09:09 10° 3° (N) 1,861 6.7 -22.4°
Sets 22:11:21 0° 7° (N) 2,756 7.7 -22.7°
